[Show "Revision History"] [Show "General Page Infos"] [Show "Page hits and edits"]

Revision History

Showing page edit history entries from 1 to 63 out of 63 entries total. (5 | 10 | 25 | 50 | 100 | 200 items per page)

# Date Size Editor Comment Action
63 2012-10-14 13:17:25 23833 to previous JukkaZitting   view
62 2012-10-14 13:17:12 23839 to previous JukkaZitting Close the report view
61 2012-10-14 12:42:48 24609 to previous JukkaZitting Fix typos view
60 2012-10-14 11:14:36 24607 to previous JukkaZitting Last bits view
59 2012-10-14 10:58:11 24002 to previous JukkaZitting Note the infra streamlining proposal and CloudStack's question about non-OS files in version history view
58 2012-10-14 07:25:42 23112 to previous JukkaZitting Note key signing discussion. Add remaining TODOs. view
57 2012-10-14 07:18:12 22810 to previous JukkaZitting Add recent releases. Note Wookie's crypto export issue. Plus other minor fixes. view
56 2012-10-13 21:31:42 22141 to previous JukkaZitting Update summary of incoming/outgoing podlings view
55 2012-10-13 18:06:15 21898 to previous David Fisher Retire Kitty view
54 2012-10-13 17:58:35 21752 to previous David Fisher   view
53 2012-10-13 16:08:23 21746 to previous JukkaZitting Start collecting summary information view
52 2012-10-13 15:55:17 21357 to previous JukkaZitting Unify formatting of podling reports. Some minor comments. view
51 2012-10-13 14:52:41 21178 to previous JukkaZitting All podling reports reviewed view
50 2012-10-13 14:44:55 21200 to previous JukkaZitting Summarize JSPWiki status and outlook from the IPMC perspective view
49 2012-10-13 14:21:10 20492 to previous JukkaZitting DeviceMap has low activity but is making some progress, note the IP issue view
48 2012-10-12 22:05:36 20192 to previous JukkaZitting Ross is otherwise occupied view
47 2012-10-12 22:02:51 20211 to previous JukkaZitting VXQuery activity remains better than it was, release still needed view
46 2012-10-12 21:58:12 20273 to previous JukkaZitting   view
45 2012-10-12 21:57:38 20266 to previous JukkaZitting Celix needs a release. They view
44 2012-10-12 21:47:43 20287 to previous JukkaZitting Matt Franklin reviewed CloudStack. No release yet, but looking good. view
43 2012-10-12 21:43:13 20313 to previous JukkaZitting ODF Toolkit is making progress, but would still benefit from adding a committer or two view
42 2012-10-12 21:35:20 20334 to previous JukkaZitting EasyAnt seems headed towards graduation into Apache Ant view
41 2012-10-12 21:20:43 20348 to previous JukkaZitting   view
40 2012-10-12 21:20:06 20355 to previous JukkaZitting Matt Franklin reviewed Tashi, who view
39 2012-10-12 04:25:06 20338 to previous StefanBodewig   view
38 2012-10-11 21:53:16 20329 to previous MattFranklin   view
37 2012-10-11 02:14:37 20317 to previous MichaelStroucken add tashi view
36 2012-10-10 23:12:45 17992 to previous JukkaZitting Benson reviewed Kafka and ODF Toolkit view
35 2012-10-10 23:07:58 18007 to previous JukkaZitting Benson reviewed Kafka, looks good view
34 2012-10-10 08:01:08 18010 to previous antelder   view
33 2012-10-09 20:33:12 18006 to previous NicolasLalevée   view
32 2012-10-09 16:05:57 16446 to previous SebastianBazley   view
31 2012-10-09 11:56:05 16447 to previous JukkaZitting Add note about Kitty heading for retirement view
30 2012-10-09 11:47:26 16337 to previous JukkaZitting Mesos needs more committers besides just a single super-active one view
29 2012-10-09 10:57:50 16333 to previous JukkaZitting Chukwa is losing activity again, see general@ view
28 2012-10-09 10:40:02 16346 to previous TomWhite2   view
27 2012-10-09 05:14:49 16314 to previous andrew   view
26 2012-10-05 09:52:56 15378 to previous BertrandDelacretaz add DeviceMap report view
25 2012-10-04 23:29:02 14305 to previous TimWilliams Add Blur report view
24 2012-10-04 18:27:55 13522 to previous MarcelOffermans Signed off Celix view
23 2012-10-04 12:27:15 13516 to previous TedDunning added Grant's sign-off to Drill view
22 2012-10-04 06:29:40 13477 to previous BerndFondermann   view
21 2012-10-04 06:27:49 13469 to previous TedDunning   view
20 2012-10-04 06:25:45 13415 to previous TedDunning Added Drill report. view
19 2012-10-03 23:30:33 12272 to previous JoeBrockmeier Changes to CloudStack's report. view
18 2012-10-03 23:06:35 11989 to previous NoahSlater   view
17 2012-10-03 21:27:36 11977 to previous JuanPabloSantos   view
16 2012-10-03 19:28:49 11072 to previous JoelKoshy   view
15 2012-10-03 19:18:48 11072 to previous ChrisDouglas   view
14 2012-10-03 18:40:16 11054 to previous JoelKoshy   view
13 2012-10-03 18:36:51 11028 to previous JoelKoshy   view
12 2012-10-03 15:44:57 9424 to previous JoeBrockmeier   view
11 2012-10-03 14:36:02 7700 to previous PepijnNoltes Celix report view
10 2012-10-02 06:45:59 6140 to previous TillWestmann   view
9 2012-10-01 12:45:24 5642 to previous robweir   view
8 2012-09-30 18:35:38 4363 to previous EricYang   view
7 2012-09-30 18:34:28 4367 to previous EricYang   view
6 2012-09-30 18:33:57 4377 to previous EricYang   view
5 2012-09-28 17:50:07 3043 to previous jochen   view
4 2012-09-24 19:16:35 2985 to previous JukkaZitting Assign shepherds view
3 2012-09-16 21:48:09 2665 to previous JukkaZitting AWF was retired view
2 2012-09-16 19:35:57 2672 to previous JukkaZitting Blur and Drill are starting view
1 2012-09-16 19:29:55 1661 JukkaZitting Copy report template view